TimeCDT,TemperatureF,Dew PointF,Humidity,Sea Level PressureIn,VisibilityMPH,Wind Direction,Wind SpeedMPH,Gust SpeedMPH,PrecipitationIn,Events,Conditions,WindDirDegrees,DateUTC
12:53 AM,81.0,77.0,88,30.00,10.0,Calm,Calm,-,N/A,,Clear,0,2013-06-28 05:53:00
1:53 AM,81.0,77.0,88,29.99,10.0,West,4.6,-,N/A,,Clear,270,2013-06-28 06:53:00
2:53 AM,81.0,77.0,88,29.99,10.0,West,4.6,-,N/A,,Clear,260,2013-06-28 07:53:00
3:53 AM,81.0,78.1,91,29.98,10.0,West,3.5,-,N/A,,Clear,260,2013-06-28 08:53:00
4:53 AM,81.0,78.1,91,29.97,10.0,West,4.6,-,N/A,,Scattered Clouds,260,2013-06-28 09:53:00
5:53 AM,80.1,77.0,90,29.96,10.0,West,6.9,-,N/A,,Clear,260,2013-06-28 10:53:00
6:53 AM,80.1,77.0,90,29.96,10.0,West,4.6,-,N/A,,Clear,260,2013-06-28 11:53:00
7:53 AM,82.0,78.1,88,29.98,9.0,NW,6.9,-,N/A,,Clear,310,2013-06-28 12:53:00
8:53 AM,84.0,77.0,79,29.99,10.0,WNW,10.4,-,N/A,,Scattered Clouds,300,2013-06-28 13:53:00
9:53 AM,86.0,75.9,72,29.99,10.0,NW,10.4,16.1,N/A,,Partly Cloudy,310,2013-06-28 14:53:00
10:53 AM,88.0,75.0,65,29.96,10.0,West,6.9,-,N/A,,Clear,280,2013-06-28 15:53:00
11:53 AM,89.1,75.0,63,29.95,10.0,West,6.9,-,N/A,,Scattered Clouds,270,2013-06-28 16:53:00
12:53 PM,91.0,75.0,59,29.94,10.0,WSW,9.2,-,N/A,,Clear,240,2013-06-28 17:53:00
1:53 PM,91.0,73.9,57,29.92,9.0,West,4.6,-,N/A,,Mostly Cloudy,270,2013-06-28 18:53:00
2:53 PM,93.9,73.0,51,29.90,10.0,WSW,5.8,-,N/A,,Scattered Clouds,250,2013-06-28 19:53:00
3:53 PM,96.1,71.1,44,29.88,10.0,NW,8.1,-,N/A,,Clear,310,2013-06-28 20:53:00
4:53 PM,95.0,70.0,44,29.86,10.0,West,4.6,-,N/A,,Clear,270,2013-06-28 21:53:00
5:53 PM,93.9,72.0,49,29.84,10.0,WSW,6.9,-,N/A,,Clear,240,2013-06-28 22:53:00
6:53 PM,91.0,78.1,66,29.84,10.0,SW,6.9,-,N/A,,Clear,220,2013-06-28 23:53:00
7:53 PM,87.1,77.0,72,29.83,10.0,SSW,8.1,-,N/A,,Clear,210,2013-06-29 00:53:00
8:53 PM,84.0,78.1,82,29.83,10.0,SW,8.1,-,N/A,,Clear,220,2013-06-29 01:53:00
9:53 PM,82.9,78.1,85,29.83,10.0,WSW,6.9,-,N/A,,Clear,240,2013-06-29 02:53:00
10:53 PM,82.9,78.1,85,29.84,10.0,SW,4.6,-,N/A,,Clear,220,2013-06-29 03:53:00
11:53 PM,82.9,78.1,85,29.86,10.0,SW,6.9,-,N/A,,Clear,230,2013-06-29 04:53:00